Hourly Data Report for September 28, 2017

All times are specified in Local Standard Time (LST). Add 1 hour to adjust for Daylight Saving Time where and when it is observed.

IQALUIT CLIMATE
NUNAVUT

63°44'50.000" N
68°32'40.000" W
33.50 m
2402592
71321
XFB

Download Data

Hourly Data (September 2017)
Hourly Data Report for September 28, 2017
Temp Definition
°C
Dew Point Temp Definition
°C
Rel Hum Definition
%
Wind Dir Definition
10's deg

Wind Spd Definition
km/h
Visibility Definition
km
Stn Press Definition
kPa
Hmdx Definition


Wind Chill Definition


Weather Definition


TIME
00:00
01:00 -1.3 -3.4 85 33 19   100.71   -7 LegendNANA
02:00 -1.4 -3.8 84 33 12   100.75   -5 LegendNANA
03:00 -1.6 -4.0 84 34 9   100.76   -5 LegendNANA
04:00 -1.4 -4.2 82 33 13   100.76   -6 LegendNANA
05:00 -1.2 -3.1 87 32 8   100.76   -4 LegendNANA
06:00 -0.9 -2.5 89 31 8   100.75   -4 LegendNANA
07:00 -0.4 -1.8 90 31 8   100.77   -3 LegendNANA
08:00 0.0 -1.5 90 29 7   100.74   -2 LegendNANA
09:00 0.0 -1.3 91 26 10   100.75   -3 LegendNANA
10:00 0.3 -1.1 90 29 6   100.73     LegendNANA
11:00 1.2 -0.3 89 31 6   100.72     LegendNANA
12:00 2.8 0.4 84 31 9   100.70     LegendNANA
13:00 3.8 0.7 80 31 7   100.70     LegendNANA
14:00 1.9 0.1 88 21 3   100.70     LegendNANA
15:00 1.7 0.7 93 20 2   100.72     LegendNANA
16:00 1.3 0.3 93 22 3   100.73     LegendNANA
17:00 1.3 0.6 95 26 6   100.74     LegendNANA
18:00 1.9 0.5 91 32 17   100.75     LegendNANA
19:00 1.5 0.1 90 32 19   100.75     LegendNANA
20:00 1.2 0.1 92 32 26   100.75     LegendNANA
21:00 1.1 -0.4 90 31 23   100.75     LegendNANA
22:00 0.8 -1.3 86 33 26   100.77     LegendNANA
23:00 0.0 -2.6 83 33 28   100.83   -6 LegendNANA

Notes on Data Quality.

Legend

  • E = Estimated
  • M = Missing
  • NA = Not Available
  • ‡ = Partner data that is not subject to review by the National Climate Archives
Date modified: